AIC155 VOMM-VOBL

Flight info

Callsign AIC155
Flight time N/A
Altitude 20000
Route XIVIL2A/07 MMV W117 BIA
Aircraft B742/H-SDFHIRWXY/L

Departure

Time 2026-04-26 07:54
Airport Chennai International Airport (VOMM)

Arrival

Time N/A
Airport Kempegowda International Airport Bengaluru (VOBL)
Time Latitude Longitude Altitude Speed Heading
2026-04-26 07:54 13.05948 80.02991 7458 ft 300 kts 283°
2026-04-26 07:54 13.06395 80.00903 8219 ft 299 kts 284°
2026-04-26 07:54 13.06851 79.98803 8891 ft 301 kts 284°
2026-04-26 07:54 13.07306 79.96708 9615 ft 303 kts 284°
2026-04-26 07:55 13.07746 79.94576 10220 ft 313 kts 284°
2026-04-26 07:55 13.08207 79.92345 10633 ft 328 kts 284°
2026-04-26 07:55 13.08696 79.90020 11041 ft 342 kts 284°
2026-04-26 07:55 13.09214 79.87582 11452 ft 355 kts 284°
2026-04-26 07:56 13.09734 79.85139 12151 ft 356 kts 284°
2026-04-26 07:56 13.10271 79.82620 12857 ft 360 kts 284°
2026-04-26 07:56 13.10796 79.80144 13586 ft 365 kts 284°
2026-04-26 07:56 13.11342 79.77571 14374 ft 370 kts 284°
2026-04-26 07:57 13.11892 79.74989 15182 ft 374 kts 284°
2026-04-26 07:57 13.12444 79.72392 15984 ft 379 kts 284°
2026-04-26 07:57 13.13007 79.69743 16789 ft 384 kts 284°
2026-04-26 07:57 13.13580 79.67049 17590 ft 389 kts 284°
2026-04-26 07:58 13.14158 79.64332 18366 ft 394 kts 284°
2026-04-26 07:58 13.14753 79.61535 18989 ft 404 kts 284°
2026-04-26 07:58 13.15359 79.58693 19368 ft 421 kts 284°
2026-04-26 07:58 13.15996 79.55704 19692 ft 438 kts 284°
2026-04-26 07:59 13.16657 79.52598 19808 ft 449 kts 284°
2026-04-26 07:59 13.17325 79.49451 19834 ft 456 kts 284°
2026-04-26 07:59 13.18007 79.46236 19840 ft 457 kts 284°
2026-04-26 07:59 13.18676 79.43072 19843 ft 456 kts 284°
2026-04-26 08:00 13.19350 79.39889 19844 ft 456 kts 284°
2026-04-26 08:00 13.20024 79.36697 19845 ft 456 kts 284°
2026-04-26 08:00 13.20690 79.33542 19844 ft 456 kts 283°
2026-04-26 08:00 13.21342 79.30415 19844 ft 456 kts 283°
2026-04-26 08:01 13.22005 79.27230 19844 ft 456 kts 283°
2026-04-26 08:01 13.22674 79.24028 19844 ft 456 kts 283°
2026-04-26 08:01 13.23339 79.20854 19844 ft 456 kts 284°
2026-04-26 08:01 13.24007 79.17676 19845 ft 456 kts 284°
2026-04-26 08:02 13.24678 79.14483 19844 ft 455 kts 284°
2026-04-26 08:02 13.25338 79.11342 19844 ft 455 kts 284°
2026-04-26 08:02 13.26009 79.08151 19844 ft 454 kts 283°
2026-04-26 08:02 13.26671 79.05003 19844 ft 454 kts 283°
2026-04-26 08:03 13.27342 79.01807 19845 ft 453 kts 283°
2026-04-26 08:03 13.28003 78.98659 19844 ft 453 kts 283°
2026-04-26 08:03 13.28662 78.95506 19844 ft 452 kts 283°
2026-04-26 08:03 13.29064 78.92297 19845 ft 454 kts 275°
2026-04-26 08:04 13.29116 78.89077 19846 ft 455 kts 270°
2026-04-26 08:04 13.28995 78.85799 19845 ft 455 kts 268°
2026-04-26 08:04 13.28801 78.82590 19845 ft 455 kts 267°
2026-04-26 08:04 13.28573 78.79317 19845 ft 455 kts 267°
2026-04-26 08:05 13.28337 78.76074 19845 ft 455 kts 267°
2026-04-26 08:05 13.28101 78.72862 19845 ft 455 kts 267°
2026-04-26 08:05 13.27863 78.69601 19849 ft 455 kts 267°
2026-04-26 08:05 13.27626 78.66354 19867 ft 455 kts 267°
2026-04-26 08:06 13.27394 78.63148 19890 ft 455 kts 267°
2026-04-26 08:06 13.27159 78.59913 19914 ft 456 kts 267°
2026-04-26 08:06 13.26924 78.56670 19937 ft 456 kts 267°
2026-04-26 08:06 13.26688 78.53418 19961 ft 456 kts 267°
2026-04-26 08:07 13.26452 78.50176 19985 ft 456 kts 267°
2026-04-26 08:07 13.26430 78.46923 20009 ft 455 kts 274°
2026-04-26 08:07 13.26719 78.43690 20020 ft 454 kts 278°
2026-04-26 08:07 13.27149 78.40493 20022 ft 454 kts 280°
2026-04-26 08:08 13.27638 78.37311 20022 ft 454 kts 281°
2026-04-26 08:08 13.28152 78.34096 20021 ft 454 kts 281°
2026-04-26 08:08 13.28652 78.30950 20019 ft 441 kts 280°
2026-04-26 08:08 13.29124 78.27937 20015 ft 415 kts 280°
2026-04-26 08:09 13.29577 78.25056 19920 ft 403 kts 281°
2026-04-26 08:09 13.30021 78.22234 19748 ft 401 kts 280°
2026-04-26 08:09 13.30317 78.19360 19278 ft 402 kts 275°
2026-04-26 08:09 13.30438 78.16593 18823 ft 397 kts 273°
2026-04-26 08:10 13.30494 78.13823 18361 ft 393 kts 272°
2026-04-26 08:10 13.30529 78.11063 17898 ft 390 kts 272°
2026-04-26 08:10 13.30562 78.08332 17436 ft 388 kts 272°
2026-04-26 08:10 13.30597 78.05617 16974 ft 385 kts 272°
2026-04-26 08:11 13.30633 78.02980 16522 ft 382 kts 272°
2026-04-26 08:11 13.30671 78.00223 16046 ft 379 kts 272°
2026-04-26 08:11 13.30709 77.97562 15583 ft 377 kts 272°
2026-04-26 08:11 13.30747 77.94881 15114 ft 374 kts 272°
2026-04-26 08:12 13.30783 77.92261 14652 ft 371 kts 272°
2026-04-26 08:12 13.30820 77.89629 14184 ft 369 kts 272°
2026-04-26 08:12 13.30856 77.87024 13718 ft 366 kts 272°
2026-04-26 08:12 13.30890 77.84502 13264 ft 364 kts 272°
2026-04-26 08:13 13.30926 77.81888 12855 ft 360 kts 272°
2026-04-26 08:13 13.30960 77.79328 12426 ft 360 kts 272°
2026-04-26 08:13 13.30986 77.76839 11943 ft 346 kts 272°
2026-04-26 08:13 13.31007 77.74416 11454 ft 332 kts 272°
2026-04-26 08:14 13.31027 77.72104 10968 ft 320 kts 272°
2026-04-26 08:14 13.31045 77.69867 10480 ft 309 kts 272°
2026-04-26 08:14 13.31063 77.67715 9994 ft 299 kts 272°
2026-04-26 08:14 13.31080 77.65623 9507 ft 293 kts 271°
2026-04-26 08:15 13.31097 77.63563 9048 ft 289 kts 271°
2026-04-26 08:15 13.31114 77.61482 8672 ft 288 kts 271°
2026-04-26 08:15 13.31130 77.59438 8264 ft 288 kts 271°
2026-04-26 08:15 13.31145 77.57406 7861 ft 284 kts 271°
2026-04-26 08:16 13.31161 77.55384 7486 ft 283 kts 271°
2026-04-26 08:16 13.31176 77.53361 7169 ft 280 kts 271°
2026-04-26 08:16 13.31190 77.51374 7056 ft 280 kts 270°
2026-04-26 08:16 13.31206 77.49380 7030 ft 281 kts 271°
2026-04-26 08:17 13.31183 77.47390 7013 ft 280 kts 262°
2026-04-26 08:17 13.30429 77.45532 7020 ft 283 kts 232°
2026-04-26 08:17 13.28871 77.44312 7020 ft 285 kts 202°
2026-04-26 08:17 13.27019 77.44048 7011 ft 265 kts 172°
2026-04-26 08:18 13.25447 77.44752 7006 ft 241 kts 138°
2026-04-26 08:18 13.24467 77.46107 7020 ft 238 kts 120°
2026-04-26 08:18 13.23657 77.47590 6979 ft 238 kts 119°
2026-04-26 08:18 13.22866 77.49075 6624 ft 235 kts 119°
2026-04-26 08:19 13.22106 77.50517 6470 ft 231 kts 119°
2026-04-26 08:19 13.21323 77.51979 6406 ft 233 kts 121°
2026-04-26 08:19 13.20739 77.53492 6052 ft 236 kts 95°
2026-04-26 08:19 13.20831 77.55163 5639 ft 232 kts 88°
2026-04-26 08:20 13.20826 77.56792 5290 ft 227 kts 91°
2026-04-26 08:20 13.20804 77.58399 4997 ft 221 kts 91°
2026-04-26 08:20 13.20788 77.59930 4727 ft 202 kts 91°
2026-04-26 08:20 13.20776 77.61286 4480 ft 181 kts 91°
2026-04-26 08:21 13.20765 77.62524 4184 ft 168 kts 91°
2026-04-26 08:21 13.20756 77.63678 3951 ft 159 kts 91°
2026-04-26 08:21 13.20758 77.64800 3691 ft 157 kts 90°
2026-04-26 08:21 13.20753 77.65889 3540 ft 154 kts 92°
2026-04-26 08:22 13.20734 77.66999 3354 ft 156 kts 91°
2026-04-26 08:22 13.20725 77.68108 3157 ft 155 kts 92°
2026-04-26 08:22 13.20710 77.69183 3012 ft 146 kts 91°
2026-04-26 08:22 13.20702 77.70091 3011 ft 106 kts 90°
2026-04-26 08:23 13.20697 77.70695 3011 ft 65 kts 90°